This demonstration page uses our WeatherBlox Daily Observations layout. Learn more.

Hourly Observations for February 16, 2020

Temp ( °F °C ) Dew Point ( °F °C ) Humidity (%) Winds ( mph kmh ) Pressure ( in mb ) Visibility ( mi km ) Precip ( " mm )
12:15 am 00:15 Mostly Cloudy 38 3.2 17 -8.3 43 43 S 10 17 30.1 1019 10 16.0934 0 0
12:35 am 00:35 Mostly Cloudy 37 2.7 17 -8.1 45 45 S 9 15 30.09 1019 10 16.0934 0 0
12:55 am 00:55 Cloudy 37 2.5 18 -7.7 47 47 S 9 15 30.09 1019 10 16.0934 0 0
1:15 am 01:15 Cloudy 36 2.3 18 -7.6 48 48 S 9 15 30.09 1019 10 16.0934 0 0
1:35 am 01:35 Cloudy 36 2.2 19 -7.5 49 49 S 8 13 30.08 1019 10 16.0934 0 0
1:55 am 01:55 Cloudy 36 2 19 -7.3 51 51 S 9 15 30.08 1018 10 16.0934 0 0
2:15 am 02:15 Cloudy 35 1.7 19 -7.3 52 52 S 9 15 30.08 1019 10 16.0934 0 0
2:35 am 02:35 Partly Cloudy 33 0.4 19 -7.5 56 56 S 8 13 30.09 1019 10 16.0934 0 0
2:55 am 02:55 Clear 32 0 18 -7.8 56 56 SSW 5 7 30.09 1019 10 16.0934 0 0
3:15 am 03:15 Partly Cloudy 32 -0.2 18 -7.9 57 57 SSW 5 7 30.09 1019 10 16.0934 0 0
3:35 am 03:35 Partly Cloudy 32 0 18 -8 55 55 SW 6 9 30.08 1019 10 16.0934 0 0
3:55 am 03:55 Clear 32 0 18 -8 55 55 SW 7 11 30.07 1018 10 16.0934 0 0
4:15 am 04:15 Clear 33 0.3 18 -7.8 55 55 WSW 8 13 30.08 1019 10 16.0934 0 0
4:35 am 04:35 Clear 34 1 18 -7.8 52 52 WSW 10 17 30.08 1018 10 16.0934 0 0
4:55 am 04:55 Clear 33 0.7 17 -8.2 52 52 WSW 9 15 30.08 1019 10 16.0934 0 0
5:15 am 05:15 Clear 33 0.6 17 -8.2 52 52 WSW 8 13 30.08 1019 10 16.0934 0 0
5:35 am 05:35 Clear 32 0 17 -8.2 54 54 SW 8 13 30.07 1018 10 16.0934 0 0
5:55 am 05:55 Clear 32 0 18 -7.9 56 56 SW 8 13 30.07 1018 10 16.0934 0 0
6:15 am 06:15 Clear 32 0 18 -7.7 57 57 SW 7 11 30.07 1018 10 16.0934 0 0
6:35 am 06:35 Clear 32 0 18 -7.6 57 57 SW 7 11 30.07 1018 10 16.0934 0 0
6:55 am 06:55 Clear 31 -0.6 18 -7.6 60 60 SW 7 11 30.07 1018 10 16.0934 0 0
7:15 am 07:15 Clear 31 -0.6 19 -7.5 60 60 WSW 7 11 30.08 1019 10 16.0934 0 0
7:35 am 07:35 Sunny 31 -0.8 19 -7.3 62 62 SW 5 7 30.08 1019 10 16.0934 0 0
7:55 am 07:55 Sunny 29 -1.8 19 -7.5 65 65 SW 6 9 30.1 1019 10 16.0934 0 0
8:15 am 08:15 Sunny 31 -0.4 20 -6.5 64 64 WSW 6 9 30.1 1019 10 16.0934 0 0
8:35 am 08:35 Sunny 31 -0.3 20 -6.5 63 63 WSW 5 7 30.09 1019 10 16.0934 0 0
8:55 am 08:55 Sunny 34 1 22 -5.6 62 62 WSW 6 9 30.08 1018 10 16.0934 0 0
9:15 am 09:15 Sunny 37 3 21 -5.9 52 52 WSW 8 13 30.05 1017 10 16.0934 0 0
9:35 am 09:35 Sunny 39 4.1 22 -5.4 50 50 W 7 11 30.04 1017 10 16.0934 0 0
9:55 am 09:55 Sunny 41 5.2 23 -5.2 47 47 W 6 9 30.02 1016 10 16.0934 0 0
10:15 am 10:15 Sunny 43 6.2 23 -5.2 44 44 WSW 6 9 30.01 1016 10 16.0934 0 0
10:35 am 10:35 Sunny 45 7.3 22 -5.5 40 40 WSW 6 9 30 1016 10 16.0934 0 0
10:55 am 10:55 Sunny 47 8.6 22 -5.8 36 36 WSW 8 13 29.99 1015 10 16.0934 0 0
11:15 am 11:15 Sunny 49 9.7 22 -5.5 34 34 SW 8 13 29.97 1015 10 16.0934 0 0
11:35 am 11:35 Sunny 50 10.2 22 -5.3 33 33 WSW 6 9 29.95 1014 10 16.0934 0 0
11:55 am 11:55 Sunny 50 10.1 22 -5.3 34 34 WSW 9 15 29.93 1014 10 16.0934 0 0
12:15 pm 12:15 Sunny 52 11.2 23 -5.1 32 32 SW 9 15 29.91 1013 10 16.0934 0 0
12:35 pm 12:35 Sunny 52 11.3 23 -4.8 32 32 SW 9 15 29.9 1013 10 16.0934 0 0
12:55 pm 12:55 Sunny 52 11.3 24 -4.7 33 33 SW 8 13 29.89 1012 10 16.0934 0 0
1:15 pm 13:15 Sunny 53 11.4 24 -4.6 33 33 SW 8 13 29.87 1012 10 16.0934 0 0
1:35 pm 13:35 Sunny 53 11.7 24 -4.2 33 33 SW 7 11 29.86 1011 10 16.0934 0 0
1:55 pm 13:55 Sunny 53 11.7 24 -4.5 32 32 SW 9 15 29.85 1011 10 16.0934 0 0
2:15 pm 14:15 Mostly Cloudy 53 11.8 25 -4.1 33 33 SW 7 11 29.85 1011 10 16.0934 0 0
2:35 pm 14:35 Cloudy 54 12.3 24 -4.2 32 32 WSW 7 11 29.83 1010 10 16.0934 0 0
2:55 pm 14:55 Cloudy 55 13 24 -4.2 30 30 SW 8 13 29.82 1010 10 16.0934 0 0
3:15 pm 15:15 Cloudy 55 13 24 -4.5 30 30 SW 7 11 29.81 1009 10 16.0934 0 0
3:35 pm 15:35 Cloudy 55 12.7 24 -4.5 30 30 SSW 10 17 29.81 1009 10 16.0934 0 0
3:55 pm 15:55 Cloudy 54 12.4 23 -5.1 29 29 SSW 13 20 29.82 1010 10 16.0934 0 0
4:15 pm 16:15 Cloudy 54 12 22 -5.5 29 29 SSW 12 19 29.83 1010 10 16.0934 0 0
4:35 pm 16:35 Cloudy 53 11.4 20 -6.5 28 28 SSW 10 17 29.83 1010 10 16.0934 0 0
4:55 pm 16:55 Mostly Cloudy 52 11 20 -6.4 29 29 S 7 11 29.82 1010 10 16.0934 0 0
5:15 pm 17:15 Partly Cloudy 51 10.5 21 -6 31 31 S 6 9 29.83 1010 10 16.0934 0 0
5:35 pm 17:35 Sunny 49 9.2 21 -6 34 34 S 7 11 29.83 1010 10 16.0934 0 0
5:55 pm 17:55 Sunny 47 8.4 21 -6.1 36 36 SSE 6 9 29.84 1010 10 16.0934 0 0
6:15 pm 18:15 Mostly Cloudy 45 7.2 21 -5.9 39 39 SSE 6 9 29.85 1011 10 16.0934 0 0
6:35 pm 18:35 Cloudy 44 6.5 22 -5.3 43 43 SSE 3 6 29.85 1011 10 16.0934 0 0
6:55 pm 18:55 Cloudy 43 6.2 23 -5.2 44 44 S 6 9 29.87 1011 10 16.0934 0 0
7:15 pm 19:15 Cloudy 43 6.2 23 -5.2 44 44 SSE 7 11 29.87 1011 10 16.0934 0 0
7:35 pm 19:35 Cloudy 43 6 23 -5 46 46 Calm 29.87 1011 10 16.0934 0 0
7:55 pm 19:55 Cloudy 41 5.2 24 -4.6 50 50 SSE 3 6 29.87 1011 10 16.0934 0 0
8:15 pm 20:15 Cloudy 43 6.2 23 -4.8 46 46 S 8 13 29.86 1011 10 16.0934 0 0
8:35 pm 20:35 Partly Cloudy 42 5.7 23 -4.8 47 47 SSE 8 13 29.85 1011 10 16.0934 0 0
8:55 pm 20:55 Partly Cloudy 42 5.6 23 -4.8 47 47 SSE 6 9 29.85 1011 10 16.0934 0 0
9:15 pm 21:15 Clear 41 4.8 24 -4.5 51 51 S 5 7 29.87 1011 10 16.0934 0 0
9:35 pm 21:35 Mostly Cloudy 42 5.7 25 -3.9 50 50 S 8 13 29.86 1011 10 16.0934 0 0
9:55 pm 21:55 Cloudy 44 6.5 27 -2.8 52 52 S 10 17 29.85 1011 10 16.0934 0 0
10:15 pm 22:15 Cloudy 43 6.2 28 -2.5 54 54 S 7 11 29.86 1011 10 16.0934 0 0
10:35 pm 22:35 Cloudy 43 6.3 29 -1.7 57 57 S 5 7 29.87 1011 10 16.0934 0 0
10:55 pm 22:55 Cloudy 43 6.2 30 -1.2 59 59 S 8 13 29.86 1011 10 16.0934 0 0
11:15 pm 23:15 Cloudy 43 6.2 31 -0.8 61 61 S 9 15 29.86 1011 10 16.0934 0 0
11:35 pm 23:35 Cloudy 43 6.2 31 -0.4 63 63 S 10 17 29.86 1011 10 16.0934 0 0
11:55 pm 23:55 Cloudy 43 6 32 0 66 66 SSW 8 13 29.86 1011 10 16.0934 0 0

Powered by AerisWeather